EW0205 Weather Reports


Display with metric or nautical units.
time (UTC)temp
F
wind
direction
speed
MPH
gust
MPH
rain 1hr
in
rain 24hr
in
rain mn
in
humidity
%
barometer
mb
20260510150109 57 360 10.0 17.0 0.00 0.03 0.03 59 1008.5
20260510144514 57 250 8.0 17.0 0.00 0.03 0.03 62 1008.4
20260510143004 57 226 9.0 20.0 0.00 0.03 0.03 60 1008.5
20260510141502 56 360 9.0 18.0 0.00 0.03 0.03 60 1008.4
20260510140058 56 217 10.0 21.0 0.00 0.03 0.03 62 1008.4
20260510134555 56 221 8.0 19.0 0.00 0.03 0.03 64 1008.1
20260510133052 55 240 9.0 14.0 0.00 0.03 0.03 67 1008.2
20260510131550 55 254 7.0 14.0 0.00 0.03 0.03 68 1008.2
20260510130046 55 222 9.0 16.0 0.00 0.03 0.03 70 1007.9
20260510124543 55 360 7.0 15.0 0.00 0.03 0.03 71 1007.6
20260510123040 55 194 6.0 13.0 0.00 0.03 0.03 75 1007.4
20260510121537 55 268 4.0 9.0 0.00 0.03 0.03 75 1007.5
20260510120035 54 227 6.0 13.0 0.00 0.03 0.03 76 1007.2
20260510114533 54 235 3.0 10.0 0.00 0.03 0.03 80 1007.1
20260510113028 53 204 2.0 9.0 0.00 0.03 0.03 82 1007.0
20260510111525 52 229 2.0 8.0 0.00 0.03 0.03 87 1006.9
20260510110034 52 238 0.0 6.0 0.00 0.03 0.03 94 1006.7
20260510104517 51 174 0.0 0.0 0.00 0.03 0.03 94 1006.5
20260510103015 50 175 0.0 0.0 0.00 0.03 0.03 95 1006.1
20260510101514 50 157 0.0 0.0 0.00 0.03 0.03 95 1006.0
20260510100012 49 157 0.0 0.0 0.00 0.03 0.03 95 1005.9
20260510094510 49 157 0.0 0.0 0.00 0.03 0.03 94 1005.7
20260510093008 49 157 2.0 4.0 0.00 0.03 0.03 95 1005.4
20260510091506 49 174 0.0 0.0 0.00 0.03 0.03 96 1005.3
20260510090004 49 183 0.0 0.0 0.00 0.03 0.03 95 1005.4
20260510084502 49 180 2.0 3.0 0.00 0.03 0.03 95 1005.2
20260510083000 49 150 0.0 0.0 0.00 0.03 0.03 95 1005.0
20260510081600 48 163 0.0 0.0 0.00 0.03 0.03 95 1004.9
20260510080100 49 163 2.0 5.0 0.00 0.03 0.03 95 1005.0
20260510074618 49 141 3.0 5.0 0.00 0.03 0.03 94 1005.0
20260510073054 49 138 0.0 4.0 0.00 0.03 0.03 94 1004.8
20260510071558 50 167 2.0 4.0 0.00 0.03 0.03 94 1004.7
20260510070050 50 152 3.0 5.0 0.01 0.03 0.03 93 1004.5
20260510064605 51 144 5.0 8.0 0.01 0.03 0.03 94 1004.4
20260510063053 51 155 6.0 10.0 0.01 0.03 0.03 94 1004.3
20260510061546 51 153 5.0 9.0 0.02 0.03 0.03 94 1004.1
20260510060054 51 138 4.0 9.0 0.02 0.02 0.02 94 1004.1
20260510054545 51 146 5.0 9.0 0.02 0.02 0.02 94 1004.3
20260510053044 51 134 6.0 10.0 0.02 0.02 0.02 93 1004.3
20260510051553 51 157 4.0 12.0 0.01 0.01 0.01 92 1004.7
20260510050041 51 168 8.0 13.0 0.00 0.00 0.00 91 1004.4
20260510044541 51 175 8.0 16.0 0.00 0.00 0.00 90 1004.4
20260510043046 51 146 10.0 17.0 0.00 0.00 0.00 90 1004.3
20260510041549 51 155 8.0 15.0 0.00 0.00 0.00 91 1004.1
20260510040031 51 134 8.0 18.0 0.00 0.00 0.00 91 1003.7
20260510034529 51 155 9.0 14.0 0.00 0.00 0.00 90 1003.9
20260510033030 51 133 12.0 19.0 0.00 0.00 0.00 90 1003.9
20260510031528 51 146 12.0 18.0 0.00 0.00 0.00 90 1004.0
20260510030026 50 134 10.0 18.0 0.00 0.00 0.00 90 1004.0
20260510024525 51 153 9.0 17.0 0.00 0.00 0.00 90 1004.2
20260510023023 51 154 10.0 17.0 0.00 0.00 0.00 89 1004.6
20260510021521 50 119 9.0 16.0 0.00 0.00 0.00 89 1004.7
20260510020021 50 157 8.0 14.0 0.00 0.00 0.00 89 1005.0
20260510014523 50 130 9.0 16.0 0.00 0.00 0.00 88 1005.0
20260510013019 50 167 9.0 15.0 0.00 0.00 0.00 88 1005.2
20260510011531 50 142 10.0 15.0 0.00 0.00 0.00 88 1005.0
20260510010118 50 153 9.0 13.0 0.00 0.00 0.00 88 1005.1
20260510004517 51 125 7.0 14.0 0.00 0.00 0.00 87 1004.9
20260510003017 51 146 7.0 12.0 0.00 0.00 0.00 86 1004.9
20260510001520 52 148 6.0 16.0 0.00 0.00 0.00 84 1005.0
20260510000015 52 141 8.0 14.0 0.00 0.00 0.00 83 1005.0
20260509234515 53 137 9.0 15.0 0.00 0.00 0.00 82 1004.7
20260509233016 53 126 9.0 16.0 0.00 0.00 0.00 80 1004.7
20260509231525 54 131 10.0 17.0 0.00 0.00 0.00 79 1004.7
20260509230012 55 129 12.0 21.0 0.00 0.00 0.00 77 1004.9
20260509224512 56 116 11.0 19.0 0.00 0.00 0.00 75 1005.1
20260509223014 56 140 12.0 19.0 0.00 0.00 0.00 74 1005.1
20260509221525 56 132 13.0 23.0 0.00 0.00 0.00 73 1005.0
20260509220010 57 130 13.0 19.0 0.00 0.00 0.00 71 1004.9
20260509214508 57 132 14.0 20.0 0.00 0.00 0.00 70 1004.9
20260509213008 58 152 9.0 20.0 0.00 0.00 0.00 70 1005.0
20260509211506 58 132 10.0 17.0 0.00 0.00 0.00 67 1005.0
20260509210005 58 150 12.0 22.0 0.00 0.00 0.00 67 1005.1
20260509204504 59 360 13.0 21.0 0.00 0.00 0.00 64 1005.2
20260509203002 59 150 13.0 20.0 0.00 0.00 0.00 62 1005.4
20260509201502 59 153 13.0 22.0 0.00 0.00 0.00 62 1005.4
20260509200108 60 123 13.0 23.0 0.00 0.00 0.00 58 1005.5
20260509194559 61 134 14.0 23.0 0.00 0.00 0.00 53 1005.7
20260509193119 61 146 13.0 22.0 0.00 0.00 0.00 49 1005.9
20260509191615 61 150 13.0 23.0 0.00 0.00 0.00 46 1006.0
20260509190110 62 146 17.0 23.0 0.00 0.00 0.00 44 1006.0
20260509184554 62 179 10.0 21.0 0.00 0.00 0.00 46 1006.1
20260509183054 62 117 11.0 18.0 0.00 0.00 0.00 43 1006.3
20260509181551 62 138 12.0 18.0 0.00 0.00 0.00 43 1006.4
20260509180051 61 129 14.0 20.0 0.00 0.00 0.00 41 1006.7
20260509174547 61 133 10.0 20.0 0.00 0.00 0.00 43 1007.0
20260509173055 61 149 12.0 20.0 0.00 0.00 0.00 40 1007.2
20260509171556 61 126 7.0 15.0 0.00 0.00 0.00 39 1007.3
20260509170043 60 128 8.0 15.0 0.00 0.00 0.00 39 1007.6
20260509164547 61 135 10.0 15.0 0.00 0.00 0.00 39 1007.8
20260509163046 61 129 9.0 15.0 0.00 0.00 0.00 38 1007.9
20260509161534 60 139 14.0 19.0 0.00 0.00 0.00 37 1008.1
20260509160030 60 138 10.0 15.0 0.00 0.00 0.00 41 1008.3
20260509154526 60 140 8.0 18.0 0.00 0.00 0.00 39 1008.6
20260509153023 59 103 9.0 17.0 0.00 0.00 0.00 41 1008.7
20260509151521 59 127 9.0 15.0 0.00 0.00 0.00 41 1009.0